Tracking 35331 objects as of 16-Sep-2026
HD Live streaming from Space Station
objects crossing your sky now

SL-6 DEB


SL-6 DEB is no longer on orbit


NORAD ID: 6298
Int'l Code: 1972-095E
Launch date: December 2, 1972
Source: Commonwealth of Independent States (former USSR) (CIS)
Launch site: TYURATAM MISSILE AND SPACE COMPLEX (TTMTR)
Decay date: 1972-12-11

Note: This is SATELLITE DEBRIS
Your satellite tracking list
Your tracking list is empty




NASA's NSSDC Master Catalog

Two Line Element Set (TLE):
1 06298U 72095  E 72340.49550047  .02637524 +00000-0 +00000-0 0  9997
2 06298 064.9654 165.6535 0176870 066.0032 295.9480 15.80543545000522
Source of the keplerian elements: AFSPC